User: anonymous   Login
Location: Muenchen
(48.1800°N, 11.5800°E)
Time: 12:01:40
(UTC+01:00)
Language:

Cosmos 2233 Rocket - Orbit

View from above orbital plane
View from above orbital plane
View from above satellite
View from above satellite

Ground track
Ground track

The orbit data is extracted from the following two-line orbital elements,

1 22488U 93008B   14350.72145252  .00000166  00000-0  15092-3 0   168
2 22488 082.9427 038.1808 0024071 263.7553 236.1056 13.77644747 98483
Epoch (UTC): 16 December 2014 17:18:53
Eccentricity: 0.0024071
inclination: 82.9427°
perigee height: 954 km
apogee height: 990 km
right ascension of ascending node: 38.1808°
argument of perigee: 263.7553°
revolutions per day: 13.77644747
mean anomaly at epoch: 236.1056°
orbit number at epoch: 9848

The dashed part of the orbit path shows where the satellite is in the earth's shadow,  

DLR